Location: Luz Observatory
(34.5000°N, 117.2833°W)
Time: 07:18:50
(UTC-08:00)

Cosmos 1484 Rocket - Visible Passes

Search period start: 11 December 2017 00:00
Search period end: 21 December 2017 00:00
Orbit: 508 x 560 km, 97.3° (Epoch: 10 December)

Date Brightness Start Highest point End Pass type
(mag) Time Alt. Az. Time Alt. Az. Time Alt. Az.
11 Dec 6.3 04:52:38 10° ENE 04:53:40 11° E 04:54:42 10° ESE visible
11 Dec 2.9 17:03:13 10° SSE 17:07:07 56° ENE 17:11:03 10° N visible
12 Dec 2.9 06:15:27 10° N 06:19:15 53° WNW 06:22:58 10° SSW visible
12 Dec 6.3 18:31:26 10° WSW 18:32:41 11° W 18:33:56 10° WNW visible
13 Dec 2.7 06:06:19 10° N 06:10:12 71° WNW 06:13:59 10° SSW visible
13 Dec 6.1 18:21:15 10° SW 18:23:32 15° W 18:25:50 10° WNW visible
14 Dec 2.8 05:57:14 10° NNE 06:01:08 86° ESE 06:04:56 10° S visible
14 Dec 5.8 18:11:32 10° SW 18:14:24 19° W 18:17:17 10° NW visible
15 Dec 3.2 05:48:11 10° NNE 05:52:03 64° E 05:55:48 10° S visible
15 Dec 5.4 18:01:59 10° SSW 18:05:16 24° W 18:08:35 10° NW visible
16 Dec 3.9 05:39:12 10° NNE 05:42:57 47° E 05:46:36 10° S visible
16 Dec 4.9 17:52:35 10° SSW 17:56:09 31° W 17:59:45 10° NNW visible
17 Dec 4.5 05:30:17 10° NNE 05:33:51 35° E 05:37:19 10° SSE visible
17 Dec 4.3 17:43:16 10° S 17:47:04 41° W 17:50:52 10° NNW visible
18 Dec 5.0 05:21:25 10° NE 05:24:43 27° E 05:27:57 10° SSE visible
18 Dec 3.7 17:34:02 10° S 17:37:58 54° W 17:41:54 10° NNW visible
19 Dec 5.5 05:12:40 10° NE 05:15:35 21° E 05:18:28 10° SE visible
19 Dec 3.2 17:24:53 10° S 17:28:52 72° WSW 17:32:54 10° NNW visible
20 Dec 5.9 05:04:03 10° NE 05:06:26 16° E 05:08:48 10° SE visible
20 Dec 2.8 17:15:48 10° SSE 17:19:48 86° E 17:23:50 10° N visible
